Погода Сумы

Погода Сумы : погода сейчас, прогноз погоды и архив. Всё, что Вы хотите узнать о погоде Сумы!

Хотите узнать прогноз погоды Сумы? Тогда Вам сюда: Погода Сумы

Поиск расширенной информации на нашем сайте:

Полезная информация: Подборка материалов по истории и теории экономики http://www.econbook.ru/

Другие новости

Новости СМИ2

Главная страница сайта

Новости сайта

03.07.2017

Напоминаем, что на нашем специализированном сайте Метеоцентр.Азия вы можете получить высокодетализированные автоматические прогнозы погоды по пунктам России, СНГ и мира в авиационном формате (включающие направление и скорость ветра, видимость, явления погоды, количество и форму облачности, нижнюю и верхнюю границу облачности).

Рекомендуем: Втб финансирует вэб лизинг veb-leasing.ru.

Погода Сумы - сегодня

Время (UTC), дата Ветер
(°,м/с) 
Видим.   Явления Облачность Т
(°С)
Тd
(°С)
f(%) Тe
(°С)
Pmin
(гПа)
dP
(гПа)
Po
(мм)
O2
(г/м3)
Тmin Tmax R s Состояние
почвы
18 23.07.17 030 (СВ) 10 км    3/0 средняя 
[Ac trans]
+19.8 +10.6 55 +23  1014.9  0.4  745  278    +23.8       
21 23.07.17 290 (З) 10 км    ясно 
+14.4 +11.8 84 +20  1016.1  0.8  746  283           
00 24.07.17 290 (З) 10 км    ясно 
+12.4 +11.1 92 +17  1015.6  -0.7  745  285           
03 24.07.17 350 (С) 10 км    3/0 средняя 
[Ac trans]
+11.6 +10.8 95 +15  1015.2  -0.4  745  286           
06 24.07.17 130 (ЮВ) 10 км    3/0 верхняя 
[Ci fib]
+19.9 +12.8 64 +26  1014.9  0.3  745  277  +11.1         
09 24.07.17 130 (ЮВ) 10 км    6/6 600 м 
[Cu med, cong]
+24.2 +9.6 40 +25  1013.8  -0.8  745  274           
12 24.07.17 330 (СЗ) 10 км    6/6 600 м 
[Cu med, cong]
+25.5 +9.6 37 +26  1012.5  -1.2  744  272           
18 24.07.17 040 (СВ) 10 км    3/0 средняя 
[Ac trans]
+21.4 +10.9 51 +24  1011.5  0.1  743  276    +26.3       
21 24.07.17 тихо ()   10 км    6/0 средняя 
[Ac trans]
+17.5 +13.4 77 +24  1011.4  -0.4  743  278           
00 25.07.17 050 (СВ) 10 км    ясно 
+16.4 +12.6 78 +23  1010.7  -0.8  742  280           
03 25.07.17 120 (ЮВ) 10 км    ясно 
+14.3 +11.1 81 +18  1010.1  -0.7  741  282           
06 25.07.17 130 (ЮВ) 10 км    ясно 
+21.7 +13.2 58 +28  1009.4  -0.2  741  274  +14         
09 25.07.17 100 (В) 10 км    4/3 600 м верхняя 
[Cu hum|Ci fib]
+26.2 +11.6 40 +30  1008.5  -0.5  741  270           
12 25.07.17 120 (ЮВ) 10 км    6/6 600 м 
[Cu hum]
+27.4 +11.7 38 +31  1007.5  -0.9  740  269           
15 25.07.17 110 (В) 10 км    4/4 1000 м 
[Cu hum]
+27.6 +14.4 44 +36  1006.4  -1.1  739  268           
18 25.07.17 100 (В) 10 км    3/0 верхняя 
[Ci fib]
+22.4 +14.3 60 +30  1006.8  739  272    +28.4       
21 25.07.17 100 (В) 10 км    ясно 
+19 +12.8 67 +25  1007.2  0.2  740  276           
00 26.07.17 110 (В) 10 км    ясно 
+14.2 +9.3 72 +15  1007  -0.6  739  281           
03 26.07.17 110 (В) 10 км    ясно 
+16 +12.4 79 +21  1006.8  739  279           
06 26.07.17 130 (ЮВ) 10 км    ясно 
+23.1 +15.1 61 +32  1005.7  -0.6  739  271  +14.2         
09 26.07.17 160 (Ю) 10 км    6/0 средняя 
[Ac trans]
+28.3 +15.9 47 +39  1005.3  739  266           
12 26.07.17 150 (ЮВ) 10 км    6/0 средняя 
[Ac trans]
+30 +15.3 41 +40  1004.5  -0.7  738  265           
15 26.07.17 100 (В) 10 км  гроза, ливневой дождь  9/5 600 м кучево-дожд., средняя 
[Cb cap|Ac trans]
+20.6 +16.8 79 +33  1005.6  0.5  739  273           
18 26.07.17 130 (ЮВ) 10 км  {гроза, ливн. осадки}  4/0 верхняя 
[Ci fib]
+20.2 +18.1 88 +35  1006.1  0.4  739  273    +30.7     
21 26.07.17 180 (Ю) 10 км    3/0 верхняя 
[Ci fib]
+19.4 +17.8 90 +35  1006.3  0.2  739  274           
Время (UTC), дата Ветер
(°,м/с) 
Видим.   Явления Облачность Т
(°С)
Тd
(°С)
f(%) Тe
(°С)
Pmin
(гПа)
dP
(гПа)
Po
(мм)
O2
(г/м3)
Тmin Tmax R s Состояние
почвы

Для получения пояснительной информации подведите курсор к названию столбца.

ПОГОДА Сумы - архив

Всё, что Вы хотите узнать о погоде Сумы - удобно и подробно!

Выберите нужную дату (начиная с 1 января 2015* года) и нажмите кнопку "Найти".
Будут отображены архивные сводки погоды по пункту Сумы, начиная с указанной даты.


Отображать данные в формате CSV (для использования в таблицах Excel)


Внимание! Наш архив погоды предназначен исключительно для личного некоммерческого использования в познавательных целях. Если Вам необходимы официальные справки о состоянии погоды (для производственных, юридических, коммерческих и т.п. целей), обращайтесь в органы Росгидромета.

*Примечание: данная дата относится к архиву по метеостанциям СССР (Россия, СНГ, Балтия).
Архив по метеостанциям Зарубежной Европы и Азии (кроме Китая) хранится 10 дней, по другим регионам земного шара (Китай, Африка, Америка, Австралия, Океания) - 1 день.

Сумы - район местоположения метеостанции


Название, широта, долгота, высота метеостанции:
Сумы 50.9°ш. 34.7°д. 181 м над ур. моря [Украина]

Дополнительная информация

В oтличие oт бoльшинства пoгoдных сайтoв мы публикуем пoдрoбную метеoинфoрмацию в детальнoм прoфессиoнальнoм фoрмате.

Характеристики температуры и влажнoсти вoздуха измеряются на высoте 2 м в тени вдали oт зданий и деревьев.
Скoрoсть ветра измеряется на высoте 10 м (на урoвне рoста челoвека скoрoсть ветра ниже в 1.5-2 раза). Если метеoстанция нахoдится в гoрoде или в лесу, тo скoрoсть ветра занижена на 2-4 м/с пo сравнению с oткрытым местoм. Скoрoсть ветра над акватoриями крупных рек и oзёр, а также на вершинах хoлмoв на 2-5 м/с выше, чем в oбычных услoвиях.
Атмoсфернoе давление в разных тoчках местнoсти мoжет значительнo oтличаться oт давления на метеoстанции, в зависимoсти oт услoвий рельефа (при пoдъёме на 10 м давление пoнижается примернo на 1 мм рт.ст.).